Temp
-6 -7 -6 -6 -6 -6 -6 -7 -7 -7 -6 -7 -6 -7 -6 -6 -5 -6 -6 -6 -5 -4 -5 -5 -5 -5 -6 -5 -5 -5 -7 -6 -6 -7 -6 -6 -6 -5 -5 -5 -6 -6 -6 -5 -5 -5 -5 -5 -5
-6 -6 -6 -6 -6 -7 -7 -7 -7 -6 -7 -6 -7 -7 -6 -6 -6 -6 -5 -6 -5 -5 -5 -5 -6 -6 -6 -6 -5 -5 -7 -6 -6 -6 -6 -6 -5 -6 -5 -5 -5 -6 -6 -6 -5 -5 -5 -5 -5
-6 -6 -7 -6 -6 -7 -7 -7 -7 -6 -6 -5 -5 -6 -6 -5 -5 -6 -5 -5 -6 -5 -5 -6 -6 -6 -6 -6 -6 -6 -6 -6 -7 -6 -6 -6 -6 -6 -6 -6 -6 -6 -6 -6 -6 -5 -5 -5 -5
-6 -6 -6 -6 -6 -7 -7 -7 -6 -7 -7 -6 -5 -5 -4 -4 -5 -5 -6 -6 -6 -6 -6 -6 -6 -6 -5 -6 -6 -6 -6 -6 -7 -7 -6 -6 -6 -6 -6 -6 -6 -6 -6 -6 -6 -5 -5 -5 -5
-6 -6 -7 -6 -7 -8 -7 -7 -6 -7 -5 -6 -6 -5 -5 -5 -6 -6 -6 -6 -6 -6 -6 -6 -6 -6 -6 -6 -6 -6 -6 -6 -7 -7 -6 -7 -6 -6 -6 -5 -6 -6 -6 -6 -6 -5 -5 -6 -5
-6 -6 -6 -7 -7 -7 -6 -7 -6 -7 -6 -6 -6 -6 -5 -5 -5 -6 -5 -6 -6 -6 -6 -6 -5 -6 -6 -6 -6 -6 -6 -6 -6 -7 -7 -6 -6 -6 -6 -6 -6 -6 -6 -6 -6 -6 -6 -6 -5
-6 -6 -7 -6 -7 -8 -8 -8 -8 -7 -6 -6 -6 -7 -6 -6 -6 -6 -6 -6 -6 -6 -6 -7 -6 -5 -7 -7 -7 -6 -7 -7 -6 -7 -7 -7 -6 -6 -6 -6 -6 -6 -6 -6 -6 -6 -6 -6 -5
-5 -6 -6 -7 -7 -7 -8 -7 -8 -8 -6 -6 -7 -7 -7 -7 -6 -6 -7 -6 -6 -6 -6 -7 -7 -7 -8 -8 -7 -8 -7 -7 -7 -8 -7 -8 -7 -6 -6 -6 -6 -6 -6 -6 -6 -6 -6 -6 -5
-7 -7 -7 -7 -6 -6 -7 -8 -8 -8 -7 -7 -7 -6 -7 -7 -7 -6 -7 -6 -7 -6 -6 -6 -6 -7 -8 -8 -7 -8 -7 -7 -7 -8 -8 -7 -7 -7 -7 -6 -6 -6 -6 -6 -6 -6 -6 -5 -6
-7 -7 -8 -6 -5 -5 -5 -6 -8 -8 -8 -8 -7 -7 -8 -8 -7 -7 -7 -7 -7 -7 -7 -7 -7 -7 -8 -8 -8 -8 -8 -8 -8 -7 -8 -8 -7 -7 -7 -7 -7 -7 -6 -6 -6 -6 -6 -6 -6
-6 -6 -6 -6 -5 -5 -5 -6 -6 -8 -8 -8 -6 -7 -7 -8 -8 -7 -7 -7 -7 -7 -7 -7 -7 -8 -8 -8 -8 -9 -8 -8 -8 -8 -8 -8 -8 -7 -7 -7 -7 -7 -6 -6 -6 -6 -6 -6 -6
-6 -6 -5 -5 -5 -5 -5 -5 -6 -6 -7 -6 -6 -7 -7 -8 -8 -8 -8 -7 -7 -8 -7 -7 -7 -8 -8 -8 -8 -8 -8 -8 -8 -8 -8 -8 -9 -9 -9 -7 -7 -7 -7 -7 -6 -6 -6 -6 -6
-5 -5 -5 -6 -5 -5 -5 -5 -5 -6 -6 -6 -6 -7 -7 -8 -8 -8 -8 -8 -8 -8 -8 -7 -7 -8 -8 -8 -8 -9 -8 -8 -9 -8 -8 -8 -8 -8 -8 -8 -8 -7 -7 -7 -7 -7 -6 -6 -6
-5 -5 -5 -5 -6 -6 -5 -5 -5 -6 -7 -6 -6 -6 -7 -7 -7 -7 -8 -8 -8 -8 -8 -8 -8 -7 -7 -8 -8 -8 -9 -9 -9 -9 -8 -9 -8 -8 -8 -8 -8 -7 -7 -7 -7 -7 -7 -6 -6
-5 -6 -5 -5 -7 -6 -5 -5 -6 -7 -6 -7 -6 -5 -6 -8 -7 -7 -8 -8 -9 -9 -9 -9 -8 -8 -8 -8 -8 -8 -8 -8 -9 -9 -9 -9 -9 -8 -8 -8 -8 -8 -7 -7 -7 -7 -7 -7 -7
-6 -6 -5 -6 -6 -7 -6 -6 -6 -6 -7 -8 -8 -7 -5 -6 -7 -7 -7 -8 -8 -8 -9 -9 -9 -9 -9 -8 -8 -8 -8 -8 -8 -8 -9 -9 -9 -9 -8 -8 -8 -8 -8 -8 -8 -7 -7 -7 -6
-6 -6 -7 -7 -6 -6 -7 -8 -7 -7 -7 -6 -7 -7 -6 -6 -6 -7 -7 -7 -8 -8 -8 -9 -9 -9 -9 -9 -9 -8 -8 -8 -8 -8 -8 -8 -8 -9 -8 -8 -8 -9 -9 -8 -8 -8 -8 -8 -7
-7 -7 -7 -7 -5 -7 -7 -7 -6 -7 -6 -7 -7 -7 -7 -6 -6 -6 -7 -7 -7 -8 -9 -9 -9 -9 -9 -9 -9 -9 -9 -9 -9 -9 -8 -8 -8 -8 -8 -8 -8 -8 -9 -8 -8 -8 -8 -8 -8
-7 -6 -6 -7 -6 -7 -6 -8 -6 -7 -7 -7 -7 -7 -7 -6 -7 -7 -6 -7 -7 -8 -9 -9 -9 -9 -9 -9 -9 -9 -9 -9 -9 -9 -9 -8 -8 -8 -8 -8 -8 -8 -8 -9 -9 -8 -9 -9 -8
-6 -6 -7 -7 -7 -7 -6 -8 -7 -6 -6 -6 -7 -6 -6 -7 -7 -7 -7 -6 -7 -8 -8 -9 -9 -9 -10 -9 -9 -9 -9 -9 -9 -9 -10 -9 -9 -8 -9 -9 -9 -8 -8 -8 -8 -8 -8 -8 -8
-6 -7 -7 -8 -6 -7 -7 -7 -7 -7 -7 -7 -6 -6 -6 -7 -8 -8 -8 -7 -7 -8 -8 -8 -9 -9 -9 -10 -9 -9 -9 -9 -9 -9 -9 -10 -10 -9 -8 -9 -9 -9 -8 -8 -8 -8 -7 -8 -7
-6 -6 -6 -6 -6 -6 -7 -8 -7 -7 -7 -7 -5 -5 -6 -7 -7 -8 -8 -7 -7 -8 -8 -8 -9 -9 -9 -9 -10 -10 -9 -10 -9 -9 -10 -9 -9 -10 -9 -9 -9 -8 -8 -8 -8 -8 -8 -8 -7
-5 -6 -6 -6 -6 -6 -7 -7 -8 -8 -8 -7 -6 -5 -5 -6 -7 -7 -7 -7 -7 -7 -8 -8 -9 -9 -9 -9 -10 -10 -9 -9 -9 -10 -9 -9 -9 -9 -9 -9 -10 -9 -9 -8 -8 -8 -8 -7 -8
-6 -6 -7 -7 -7 -7 -7 -8 -8 -9 -8 -7 -7 -7 -7 -5 -5 -6 -7 -7 -7 -7 -7 -8 -9 -9 -9 -9 -10 -10 -10 -9 -10 -10 -9 -10 -9 -9 -10 -9 -9 -9 -9 -9 -9 -8 -8 -8 -8
-6 -6 -6 -7 -8 -8 -7 -8 -8 -8 -8 -8 -8 -8 -8 -6 -6 -5 -6 -8 -7 -7 -7 -7 -7 -8 -9 -9 -10 -10 -10 -10 -10 -10 -10 -10 -10 -9 -10 -9 -9 -10 -9 -9 -9 -8 -8 -8 -8
-7 -6 -7 -7 -8 -9 -8 -8 -8 -8 -8 -8 -8 -8 -8 -7 -7 -6 -5 -5 -6 -7 -6 -7 -7 -7 -7 -7 -8 -9 -10 -10 -10 -11 -11 -10 -10 -10 -9 -9 -9 -10 -9 -9 -9 -8 -8 -8 -8
-7 -7 -7 -6 -7 -8 -8 -9 -8 -8 -9 -9 -9 -9 -8 -7 -7 -7 -7 -6 -6 -6 -7 -7 -7 -7 -7 -7 -7 -7 -8 -9 -10 -11 -10 -10 -10 -10 -10 -10 -10 -10 -9 -9 -9 -9 -9 -9 -9
-8 -7 -7 -7 -7 -7 -8 -8 -9 -9 -8 -8 -7 -7 -8 -7 -7 -7 -7 -8 -7 -7 -7 -7 -7 -7 -7 -7 -7 -7 -8 -8 -9 -10 -10 -10 -10 -9 -10 -9 -9 -10 -9 -9 -9 -9 -9 -9 -9
-7 -7 -7 -7 -8 -8 -8 -9 -9 -9 -9 -9 -9 -9 -8 -7 -7 -8 -8 -8 -7 -7 -7 -7 -7 -7 -7 -7 -8 -8 -8 -9 -9 -10 -10 -10 -10 -9 -9 -10 -10 -9 -10 -9 -9 -9 -9 -9 -9
-9 -9 -9 -8 -8 -9 -9 -10 -9 -9 -10 -10 -10 -9 -8 -7 -7 -8 -7 -7 -8 -8 -8 -8 -8 -8 -8 -8 -8 -8 -9 -9 -9 -10 -10 -10 -10 -10 -9 -9 -9 -10 -10 -10 -9 -9 -9 -9 -9
Height
5905 5905 5903 5904 5904 5896 5900 5902 5900 5898 5895 5895 5897 5895 5891 5887 5887 5887 5885 5885 5885 5885 5884 5885 5888 5890 5890 5891 5893 5892 5898 5902 5904 5907 5908 5910 5913 5917 5920 5921 5923 5924 5925 5928 5929 5930 5931 5932 5934
5908 5905 5902 5902 5901 5902 5900 5904 5901 5896 5895 5894 5897 5896 5896 5892 5889 5887 5885 5884 5885 5886 5886 5885 5887 5889 5891 5893 5894 5895 5897 5903 5906 5908 5910 5912 5915 5918 5922 5924 5924 5924 5927 5931 5932 5931 5933 5934 5935
5912 5909 5907 5905 5901 5905 5908 5906 5892 5898 5904 5902 5897 5896 5895 5893 5891 5887 5885 5885 5884 5886 5887 5886 5887 5888 5891 5893 5894 5898 5900 5903 5904 5908 5911 5915 5917 5920 5924 5925 5926 5926 5929 5931 5934 5934 5935 5936 5938
5915 5908 5908 5907 5908 5908 5906 5904 5901 5900 5907 5905 5899 5901 5895 5892 5891 5888 5884 5884 5886 5887 5887 5886 5888 5889 5891 5894 5895 5896 5900 5902 5905 5909 5912 5916 5918 5922 5925 5927 5928 5928 5930 5933 5934 5936 5936 5938 5939
5913 5913 5908 5906 5909 5918 5915 5909 5907 5910 5909 5908 5902 5900 5895 5893 5894 5891 5888 5887 5888 5889 5888 5887 5887 5890 5892 5895 5897 5898 5899 5903 5905 5910 5913 5916 5920 5923 5926 5928 5928 5930 5930 5933 5935 5937 5938 5940 5940
5913 5908 5901 5911 5913 5918 5912 5909 5906 5909 5909 5909 5905 5901 5895 5896 5897 5892 5891 5889 5891 5891 5890 5890 5888 5890 5893 5895 5899 5901 5902 5903 5906 5911 5915 5917 5922 5924 5926 5929 5929 5931 5933 5934 5935 5937 5939 5940 5940
5911 5906 5906 5911 5922 5922 5918 5916 5910 5911 5909 5909 5906 5902 5900 5897 5899 5896 5893 5892 5893 5893 5892 5890 5890 5889 5892 5896 5900 5903 5904 5907 5908 5911 5915 5919 5922 5925 5927 5928 5930 5933 5934 5935 5937 5938 5939 5940 5942
5913 5914 5913 5921 5926 5923 5923 5921 5919 5908 5910 5911 5909 5906 5906 5903 5903 5902 5896 5896 5895 5895 5895 5894 5892 5891 5893 5896 5899 5903 5906 5909 5910 5913 5916 5919 5922 5924 5927 5928 5931 5933 5935 5936 5938 5939 5940 5942 5943
5916 5922 5924 5926 5927 5925 5923 5922 5920 5914 5909 5911 5913 5912 5910 5905 5905 5903 5901 5898 5897 5897 5897 5896 5897 5896 5895 5898 5902 5903 5906 5909 5911 5913 5916 5919 5921 5923 5925 5928 5932 5933 5934 5936 5938 5940 5941 5942 5943
5920 5923 5925 5926 5925 5925 5924 5922 5922 5920 5907 5907 5911 5910 5909 5907 5904 5906 5906 5902 5902 5899 5900 5899 5899 5899 5898 5899 5901 5904 5906 5909 5911 5912 5915 5918 5921 5922 5925 5928 5930 5933 5933 5935 5938 5940 5940 5941 5944
5923 5924 5926 5926 5926 5925 5924 5923 5921 5920 5908 5908 5913 5911 5909 5909 5907 5904 5909 5909 5904 5902 5901 5901 5901 5901 5901 5902 5902 5905 5907 5909 5911 5913 5915 5916 5920 5921 5925 5927 5929 5932 5933 5935 5937 5939 5940 5942 5944
5923 5925 5925 5925 5925 5924 5924 5923 5921 5919 5914 5909 5914 5912 5911 5910 5910 5909 5906 5910 5912 5907 5905 5904 5903 5902 5902 5904 5905 5906 5907 5910 5911 5913 5916 5916 5918 5922 5925 5926 5929 5931 5933 5935 5937 5939 5940 5942 5944
5925 5925 5925 5925 5924 5923 5923 5922 5921 5920 5913 5910 5910 5912 5912 5912 5912 5912 5911 5909 5912 5914 5910 5909 5907 5906 5907 5907 5908 5909 5911 5913 5914 5915 5917 5918 5920 5921 5923 5925 5928 5930 5933 5935 5936 5939 5940 5942 5943
5923 5922 5923 5923 5923 5923 5921 5921 5921 5921 5921 5911 5911 5913 5913 5913 5914 5913 5913 5912 5910 5912 5913 5911 5911 5910 5910 5910 5911 5912 5914 5915 5915 5916 5916 5918 5920 5922 5923 5923 5927 5929 5932 5934 5936 5938 5940 5942 5943
5922 5921 5923 5922 5924 5923 5920 5920 5920 5922 5922 5919 5912 5911 5914 5914 5914 5914 5915 5914 5914 5913 5914 5914 5913 5913 5912 5913 5913 5913 5915 5915 5916 5917 5917 5917 5918 5919 5920 5923 5924 5927 5929 5932 5934 5936 5938 5940 5942
5923 5922 5921 5922 5924 5925 5923 5920 5920 5922 5921 5920 5914 5911 5910 5913 5914 5914 5914 5915 5914 5914 5914 5914 5915 5915 5915 5916 5915 5917 5918 5917 5916 5916 5917 5918 5919 5918 5919 5921 5922 5925 5926 5928 5930 5934 5936 5937 5938
5919 5920 5922 5924 5924 5926 5924 5920 5920 5921 5919 5920 5918 5913 5911 5910 5913 5914 5913 5914 5914 5914 5914 5917 5917 5918 5917 5916 5917 5917 5917 5918 5919 5917 5917 5917 5918 5918 5919 5920 5920 5921 5923 5925 5927 5929 5930 5933 5934
5921 5923 5926 5924 5925 5927 5924 5921 5921 5919 5919 5919 5919 5915 5911 5910 5911 5910 5913 5912 5913 5913 5913 5914 5916 5916 5917 5916 5917 5917 5917 5918 5917 5917 5917 5918 5918 5919 5919 5920 5922 5920 5919 5922 5924 5923 5927 5928 5930
5921 5923 5925 5926 5924 5924 5922 5920 5921 5918 5919 5919 5919 5915 5914 5913 5912 5909 5907 5911 5909 5912 5912 5913 5915 5914 5914 5915 5916 5916 5918 5918 5918 5918 5917 5917 5917 5917 5917 5917 5917 5919 5920 5918 5919 5922 5924 5925 5926
5920 5922 5925 5923 5921 5922 5921 5918 5918 5918 5916 5916 5914 5913 5912 5912 5912 5910 5907 5906 5909 5908 5910 5910 5911 5912 5912 5912 5913 5914 5915 5916 5916 5917 5918 5916 5915 5914 5913 5914 5914 5915 5916 5917 5918 5921 5922 5922 5924
5918 5918 5919 5920 5919 5920 5921 5921 5917 5916 5914 5914 5913 5913 5912 5913 5912 5910 5907 5904 5906 5907 5907 5906 5907 5908 5909 5909 5910 5911 5911 5912 5913 5913 5914 5914 5914 5913 5912 5910 5910 5909 5911 5913 5915 5915 5919 5919 5921
5913 5915 5916 5918 5919 5918 5918 5919 5916 5915 5913 5910 5912 5913 5912 5912 5911 5909 5907 5904 5904 5903 5903 5904 5904 5904 5904 5903 5904 5904 5904 5906 5907 5909 5908 5909 5909 5910 5910 5908 5908 5907 5905 5908 5910 5911 5914 5916 5916
5913 5916 5916 5916 5915 5916 5917 5918 5916 5914 5908 5904 5903 5908 5909 5908 5906 5903 5902 5901 5900 5901 5900 5899 5899 5900 5900 5898 5897 5898 5898 5900 5900 5903 5904 5904 5903 5905 5907 5906 5905 5904 5904 5904 5905 5905 5907 5910 5910
5912 5914 5915 5914 5914 5914 5912 5914 5912 5909 5904 5903 5901 5899 5900 5903 5903 5903 5901 5897 5896 5896 5896 5896 5895 5894 5893 5893 5891 5890 5890 5891 5891 5893 5895 5896 5898 5900 5900 5900 5901 5902 5902 5901 5901 5902 5901 5905 5903
5910 5910 5911 5911 5908 5909 5911 5910 5910 5909 5906 5904 5902 5900 5898 5898 5900 5899 5898 5896 5892 5890 5889 5888 5888 5888 5888 5887 5886 5884 5882 5881 5883 5884 5885 5886 5888 5892 5893 5895 5897 5899 5899 5899 5898 5897 5899 5899 5900
5906 5906 5907 5907 5906 5906 5909 5911 5910 5908 5907 5904 5902 5899 5895 5893 5893 5893 5892 5892 5891 5888 5887 5885 5883 5881 5879 5877 5876 5875 5874 5871 5871 5874 5875 5875 5878 5879 5883 5887 5886 5890 5895 5894 5895 5893 5894 5893 5895
5903 5903 5903 5905 5906 5906 5909 5906 5904 5902 5903 5902 5897 5893 5892 5892 5889 5886 5882 5883 5884 5883 5882 5879 5877 5875 5873 5869 5867 5865 5863 5862 5861 5861 5861 5863 5865 5868 5869 5874 5879 5883 5886 5887 5889 5890 5889 5889 5889
5900 5899 5899 5899 5901 5902 5903 5898 5899 5896 5894 5892 5890 5888 5886 5885 5882 5881 5880 5878 5875 5875 5873 5872 5870 5867 5865 5862 5858 5855 5852 5849 5848 5848 5849 5851 5852 5854 5857 5860 5867 5870 5876 5876 5879 5883 5882 5883 5883
5893 5893 5893 5895 5894 5895 5897 5894 5893 5892 5890 5886 5882 5879 5878 5878 5876 5874 5871 5868 5868 5867 5865 5862 5859 5856 5854 5852 5849 5844 5842 5839 5836 5835 5834 5836 5837 5840 5843 5847 5852 5857 5864 5865 5867 5869 5872 5874 5873
5889 5888 5887 5887 5891 5890 5891 5893 5886 5887 5882 5881 5877 5873 5871 5871 5870 5868 5866 5864 5861 5857 5854 5852 5848 5844 5842 5839 5835 5832 5828 5824 5822 5821 5821 5821 5824 5827 5829 5833 5836 5842 5848 5852 5857 5860 5859 5863 5867
Wind_Speed
14 18 24 22 24 23 10 21 17 27 18 22 15 11 12 12 10 5 2 2 1 1 2 3 12 13 13 14 14 31 31 27 25 23 22 21 19 17 18 18 19 19 19 18 19 20 21 20 20
5 11 17 26 25 12 20 21 23 19 20 20 19 18 14 8 6 5 2 3 2 4 1 4 6 11 9 9 13 27 31 28 28 24 21 21 20 19 17 16 18 19 17 16 18 19 19 19 19
6 15 27 28 22 21 26 16 10 20 18 23 21 16 19 16 11 3 3 3 3 3 1 3 5 11 12 11 12 14 18 30 29 25 23 21 21 20 18 17 17 17 15 16 16 18 17 17 18
6 8 28 26 28 24 22 14 16 23 23 18 22 21 24 25 20 12 5 4 4 5 3 4 3 10 14 12 15 12 12 22 31 27 22 22 21 19 18 16 16 16 15 16 16 18 17 17 17
14 23 23 27 22 20 15 18 6 19 18 19 18 21 26 30 25 16 8 4 5 7 6 3 8 8 11 11 12 7 10 14 34 30 24 23 20 20 18 17 16 16 16 17 17 17 16 15 16
22 15 39 28 26 18 15 18 23 23 19 18 20 24 28 29 28 19 14 11 7 7 7 7 5 5 11 10 9 10 10 14 31 28 24 22 21 20 19 17 16 15 16 17 17 17 16 15 15
24 33 36 30 20 13 17 20 18 19 18 21 20 24 25 27 29 20 18 14 11 10 9 12 13 7 12 11 11 9 7 7 25 26 26 22 21 19 18 17 16 16 16 16 16 16 16 16 13
26 30 28 14 3 8 11 13 9 18 16 21 19 19 19 22 25 25 18 15 15 14 12 12 16 13 8 5 7 8 9 10 21 28 26 25 21 21 18 17 16 15 15 15 16 15 15 14 13
25 25 14 3 7 5 8 8 18 14 18 19 18 14 14 18 21 24 22 20 17 16 16 13 13 19 14 4 7 7 10 12 16 26 26 24 21 20 19 18 16 15 14 14 14 15 15 14 12
14 15 8 6 4 7 10 9 10 9 21 22 20 13 14 15 19 20 23 21 20 19 17 16 13 13 18 11 6 9 11 15 16 20 22 23 22 20 19 20 19 18 17 16 15 16 16 15 13
9 6 2 4 5 7 8 10 9 8 15 20 16 13 13 13 15 18 18 20 22 21 21 18 16 12 14 16 11 6 14 19 20 19 21 23 22 21 19 19 18 19 18 17 16 16 16 15 14
7 3 4 6 8 7 7 9 10 7 9 18 16 13 10 11 13 12 16 17 18 20 22 18 16 14 12 11 11 11 5 15 17 20 20 20 21 21 20 18 18 18 19 18 17 16 14 14 13
5 3 6 7 7 7 7 7 7 8 13 19 19 12 10 8 11 10 11 15 16 19 20 19 15 12 10 8 7 8 8 7 12 7 15 17 20 14 23 20 16 16 18 19 18 17 15 15 15
8 8 7 4 11 10 10 8 5 10 7 20 21 15 10 8 7 8 8 8 14 18 17 17 15 13 9 8 6 4 4 3 3 1 1 4 20 15 13 20 20 13 16 16 17 16 15 15 15
11 12 2 8 21 17 15 2 6 11 10 11 20 22 12 10 10 7 4 4 10 15 17 14 16 16 14 9 6 5 2 2 3 4 4 5 4 12 15 16 20 20 17 16 15 14 16 16 16
18 17 11 14 20 8 11 10 12 11 14 8 14 21 21 15 13 11 9 5 5 8 12 9 13 15 12 11 9 4 3 2 4 6 8 8 7 6 4 15 22 24 19 17 14 16 15 15 16
19 17 6 13 20 4 5 9 17 18 14 11 10 17 22 21 16 11 10 9 7 6 6 7 8 9 12 14 11 10 9 6 3 9 7 8 9 10 10 10 10 18 27 22 20 19 14 15 16
12 16 12 15 8 6 4 13 14 14 15 15 12 16 19 19 19 15 9 10 9 9 6 4 9 10 12 13 13 9 8 6 9 6 5 6 8 12 14 16 15 19 18 18 30 27 21 17 18
13 20 18 11 13 6 11 16 14 11 15 16 22 15 14 15 13 17 16 13 17 12 10 9 7 11 14 14 13 14 13 14 13 8 11 12 11 11 13 16 21 23 22 21 20 25 21 21 22
7 14 14 4 14 3 8 10 19 10 20 25 26 18 15 13 15 16 18 17 13 17 16 15 14 13 16 20 17 16 17 16 15 16 14 14 18 13 13 15 16 27 27 24 23 23 26 25 24
5 8 13 14 4 2 1 6 17 22 27 28 17 8 11 12 13 17 20 20 16 15 19 21 21 21 20 21 23 21 21 23 21 17 19 17 17 19 15 14 16 17 29 29 27 24 23 25 23
13 10 11 5 7 7 3 5 21 21 25 29 17 17 16 15 21 23 21 21 17 16 19 23 26 25 27 28 30 29 29 28 23 22 21 27 20 21 17 14 17 20 18 27 26 25 24 26 26
9 4 2 2 5 10 4 5 15 14 25 30 33 31 20 19 23 21 23 21 22 18 15 20 26 30 32 33 35 35 33 31 32 27 24 26 28 23 20 21 20 19 16 18 21 21 20 24 23
8 4 3 3 5 1 8 8 16 18 21 29 37 41 38 21 13 14 18 24 22 21 21 21 21 25 29 32 37 39 37 36 39 29 30 33 31 29 28 25 23 20 17 20 21 22 17 18 17
8 9 8 5 2 6 11 4 11 15 20 28 35 38 35 34 21 15 10 10 21 23 26 27 28 28 28 30 33 38 40 42 41 40 39 36 37 34 32 33 29 24 20 15 13 15 17 16 15
13 10 7 11 8 2 6 7 18 22 27 29 32 38 38 32 31 23 17 15 16 22 23 26 28 31 32 35 37 38 40 43 44 43 42 39 38 40 40 40 35 28 27 19 17 15 14 15 15
20 13 15 8 12 13 4 13 23 22 21 26 32 36 41 34 31 28 26 27 23 19 20 23 26 28 33 36 39 42 46 46 46 43 42 41 39 38 42 41 37 35 38 28 24 21 18 18 17
16 17 15 14 12 14 12 19 15 22 29 35 40 42 39 36 31 26 27 27 30 27 26 26 28 31 32 37 41 46 50 53 53 49 43 39 37 39 44 45 41 32 38 34 31 27 25 23 20
20 14 16 12 12 16 19 17 19 20 26 33 39 42 43 39 33 29 29 33 32 30 30 31 34 36 36 36 42 48 50 51 51 50 48 41 40 40 43 44 43 39 40 37 41 37 33 29 26
20 21 25 24 17 20 22 19 28 29 29 28 36 43 46 36 32 32 32 31 34 37 36 35 38 40 39 40 42 43 47 50 50 47 45 44 39 40 43 45 47 46 48 47 47 43 41 37 31
Wind_Direction
116 108 119 96 82 87 62 69 33 31 34 59 38 31 20 7 2 49 70 104 213 358 336 239 179 184 192 180 220 172 164 157 157 154 147 144 144 146 143 143 137 129 132 136 135 131 125 122 115
75 197 101 92 82 31 72 61 50 26 51 37 40 30 26 10 9 344 328 73 98 135 215 281 215 191 178 179 188 197 167 161 159 156 151 149 150 149 151 148 148 141 137 143 141 136 129 124 120
39 95 104 74 65 31 40 52 130 53 27 12 35 23 43 30 26 16 352 42 72 72 26 307 238 184 184 151 168 187 193 186 162 157 156 159 158 155 155 154 161 154 145 147 150 139 134 129 121
117 82 68 76 62 40 15 30 30 24 35 23 23 0 37 41 34 21 50 16 102 90 54 359 114 182 190 180 153 149 162 200 167 164 161 163 164 164 162 165 164 159 150 149 151 145 143 135 128
131 79 88 72 49 43 27 23 71 14 28 27 12 5 28 35 37 32 57 56 87 96 89 66 72 151 172 190 156 162 168 210 178 163 170 167 170 168 168 168 164 161 152 153 152 153 150 145 137
83 74 59 70 57 31 39 358 11 16 20 25 24 15 20 23 36 32 49 73 67 75 78 67 58 112 170 173 183 184 168 187 174 166 172 169 180 177 176 177 170 167 160 158 159 162 161 155 151
69 36 58 56 50 50 25 2 327 5 14 32 17 14 13 12 29 40 41 56 59 59 59 59 41 30 138 173 184 161 145 183 184 171 173 184 183 183 179 179 172 174 168 166 169 169 171 165 161
69 53 48 48 336 25 71 20 50 3 5 27 18 8 8 8 21 43 35 40 44 46 56 64 52 60 189 196 205 177 166 180 191 174 180 180 188 188 185 178 181 178 174 175 177 177 179 179 170
74 62 34 9 319 7 14 33 55 350 336 347 22 17 16 7 15 32 40 34 36 37 43 53 61 70 75 148 205 210 196 200 193 182 184 192 194 191 187 187 189 184 180 184 186 187 187 190 182
44 358 359 330 2 14 6 22 81 10 343 336 1 360 13 7 8 25 41 32 39 32 36 47 48 60 64 59 157 208 212 195 193 191 187 191 193 193 194 193 193 191 184 189 191 197 195 196 194
62 96 36 330 355 357 358 357 15 133 290 303 17 10 14 7 10 9 26 44 34 31 34 38 40 46 61 63 85 216 219 205 204 203 205 201 196 195 195 197 194 195 194 195 197 203 204 204 203
92 52 14 352 347 337 332 342 357 4 307 319 7 12 17 16 8 19 8 23 40 32 27 34 37 41 42 59 67 69 158 219 196 194 200 201 196 201 193 195 197 198 199 201 204 209 207 213 213
44 25 23 1 340 349 347 344 360 13 336 326 340 5 11 14 3 16 8 6 25 32 19 29 35 36 44 44 62 72 64 136 211 201 219 212 206 207 194 191 198 201 203 205 209 213 214 219 226
41 6 14 345 24 354 346 339 347 12 357 322 326 337 358 347 4 9 18 9 7 14 19 16 30 34 38 44 55 67 87 93 66 65 68 315 219 215 209 191 191 201 210 213 218 223 221 228 231
53 46 169 71 6 349 346 331 10 2 332 334 321 332 2 339 337 341 22 354 350 358 14 9 10 19 25 39 22 44 56 237 184 210 238 283 304 210 223 212 194 195 204 207 212 225 235 232 239
65 35 22 355 333 334 328 338 318 2 342 328 311 317 329 340 335 334 330 321 316 347 10 2 5 3 14 20 21 1 329 310 304 260 225 228 238 261 174 205 215 210 206 202 205 213 229 237 237
87 78 14 302 304 298 340 306 305 324 309 312 294 299 316 322 334 331 313 310 305 309 350 29 356 342 343 346 4 10 7 348 309 313 271 254 253 257 249 236 208 215 210 212 204 209 225 231 242
122 142 180 266 292 342 224 265 295 299 337 5 347 307 308 320 335 325 298 294 303 295 303 331 329 333 334 319 325 335 348 6 348 327 279 261 278 284 278 256 233 220 222 221 220 211 212 230 242
184 197 213 270 286 262 276 259 297 316 351 351 339 308 308 315 328 314 314 305 293 287 286 273 284 302 310 314 317 309 318 324 328 323 303 292 273 278 280 283 245 237 235 228 225 212 227 236 240
242 234 236 254 292 293 287 294 318 325 338 335 336 314 326 340 335 326 318 314 302 290 281 276 272 269 278 286 293 290 290 308 310 301 300 310 314 302 291 285 282 246 239 235 237 237 240 244 242
222 188 206 210 284 107 83 294 301 317 321 316 334 358 350 356 342 332 318 311 310 288 278 280 279 277 273 271 276 280 284 292 295 295 295 277 293 297 291 288 289 271 248 240 236 239 250 253 253
227 249 265 250 245 228 223 125 281 298 292 297 320 343 342 341 333 322 311 308 307 300 279 271 274 275 275 277 277 276 271 265 279 288 286 288 299 278 284 302 301 294 254 238 240 242 245 253 256
274 340 359 332 265 240 294 242 298 271 288 299 313 329 331 328 319 307 306 307 306 304 292 278 271 270 271 274 276 281 282 280 279 276 277 277 283 283 290 288 290 289 267 244 239 238 243 246 251
275 272 197 143 12 155 71 245 247 261 275 304 313 315 315 325 328 320 312 309 305 301 299 291 283 275 270 272 276 278 281 281 288 282 276 275 274 278 277 276 277 276 272 241 242 237 231 247 245
257 258 230 175 0 254 177 304 260 290 286 297 300 301 305 308 325 325 305 304 294 300 301 299 298 295 288 281 278 279 281 281 279 279 279 276 271 269 265 265 260 255 263 260 246 237 231 229 229
308 296 283 196 229 323 161 210 274 265 275 281 283 286 298 310 316 316 304 295 276 285 286 290 293 292 290 289 287 283 279 279 278 272 268 268 263 266 261 261 273 243 242 238 235 218 218 206 218
295 275 270 271 228 232 263 265 250 243 250 266 275 280 292 305 308 312 308 308 306 294 283 280 278 278 280 282 283 281 281 280 278 277 272 267 263 262 257 255 261 273 234 230 236 232 220 217 217
281 288 278 275 264 213 201 267 283 278 277 281 282 288 295 304 314 311 306 298 296 298 297 292 284 284 282 280 279 279 280 281 283 281 278 270 261 258 255 253 249 261 226 223 223 230 230 225 221
292 298 286 265 251 224 223 263 264 262 273 279 282 282 291 303 313 313 304 294 302 298 295 292 290 292 289 286 275 274 275 274 276 277 278 273 264 254 251 249 248 239 232 231 227 219 223 228 222
281 294 289 286 277 260 250 227 259 258 273 274 275 280 289 304 306 299 300 300 297 296 297 293 291 291 290 287 283 278 280 280 279 277 273 271 261 254 254 249 245 234 233 244 234 225 216 218 223